Home   Weather   St. George   Past weeks

Flag for USA Past Weather in St. George, Utah, USA — Yesterday and Last 2 Weeks

Now
70 °F

Passing clouds.


Feels Like: 67 °F
Forecast: 74 / 86 °F
Wind: 3 mph from South

Location: Saint George

Current Time: Jul 25, 2017 at 5:05:31 am

Latest Report: Jul 25, 2017 at 3:56 am


Visibility: 10 mi

Pressure: 29.92 "Hg (27.13 "Hg at 842m altitude)

Humidity: 90%

Dew Point: 67 °F

Location of St. GeorgeLocation

Past Weather in St. George — Graph

°F

St. George Temperature Yesterday

Maximum temperature yesterday: 97 °F (at 3:35 pm)
Minimum temperature yesterday: 71 °F (at 11:56 pm)
Average temperature yesterday: 86 °F

High & Low Weather Summary for the Past Weeks

 TemperatureHumidityPressure
High109 °F (Jul 15, 5:56 pm)96% (Jul 25, 2:56 am)30.10 "Hg (Jul 25, 2:56 am)
Low69 °F (Jul 25, 2:56 am)9% (Jul 14, 6:56 pm)29.66 "Hg (Jul 16, 5:56 pm)
Average89 °F33%29.85 "Hg
* Reported Jul 10 4:56 am — Jul 25 3:56 am, St. George. Weather by CustomWeather, © 2017

Note: Actual official high and low records may vary slightly from our data, if they occured in-between our weather recording intervals... More about our weather records

Advertising

St. George Weather History for the Previous 24 Hours

Scroll right to see more
 ConditionsComfort  
Time TempWeatherWind HumidityBarometerVisibility
3:56 am
Tue, Jul 25
70 °FPassing clouds.3 mph90%29.92 "Hg10 mi
3:06 am70 °FLight rain. Partly cloudy.6 mph94%30.03 "Hg10 mi
2:56 am69 °FLight rain. Mostly cloudy.7 mph96%29.92 "Hg10 mi
2:38 am70 °FLight rain. Mostly cloudy.8 mph94%30.03 "Hg10 mi
2:17 am70 °FRain. Mostly cloudy.5 mph94%30.04 "Hg10 mi
12:56 am70 °FLight rain. Mostly cloudy.7 mph93%29.95 "Hg10 mi
12:43 am70 °FRain. Overcast.6 mph94%30.05 "Hg10 mi
12:17 am70 °FLight rain. Mostly cloudy.12 mph94%30.03 "Hg10 mi
11:56 pm
Mon, Jul 24
71 °FRain. Mostly cloudy.5 mph93%29.91 "Hg8 mi
11:26 pm72 °FStrong thunderstorms. Fog.18 mph94%30.00 "Hg5 mi
10:56 pm73 °FHeavy rain. Overcast.26 mph84%29.88 "Hg4 mi
10:35 pm81 °FThundershowers. Mostly cloudy.9 mph58%29.96 "Hg10 mi
9:56 pm84 °FOvercast.17 mph48%29.80 "Hg10 mi
8:56 pm89 °FPassing clouds.No wind34%29.77 "Hg10 mi
7:56 pm90 °FSunny.7 mph34%29.77 "Hg10 mi
6:56 pm89 °FSunny.7 mph38%29.77 "Hg10 mi
5:56 pm88 °FSunny.8 mph39%29.76 "Hg10 mi
4:56 pm86 °FSunny.20 mph48%29.77 "Hg10 mi
4:03 pm90 °FPartly sunny.26 mph38%29.88 "Hg10 mi
3:35 pm97 °FThundershowers. Sunny.9 mph27%29.88 "Hg10 mi
2:56 pm96 °FSunny.3 mph26%29.75 "Hg10 mi
1:56 pm95 °FSunny.5 mph26%29.78 "Hg10 mi
12:56 pm92 °FSunny.No wind29%29.81 "Hg10 mi
11:56 am93 °FSunny.6 mph28%29.83 "Hg10 mi
10:56 am90 °FSunny.6 mph31%29.85 "Hg10 mi
9:56 am89 °FSunny.No wind31%29.85 "Hg10 mi
8:56 am84 °FSunny.7 mph38%29.86 "Hg10 mi
7:56 am80 °FSunny.9 mph45%29.85 "Hg10 mi
6:56 am78 °FSunny.9 mph50%29.83 "Hg10 mi
5:56 am79 °FClear.5 mph45%29.81 "Hg10 mi
Weather by CustomWeather, © 2017

See weather overviewHow to use our weather pages